CHINASAT 9 (ZX 9)

Last updated on Sat Jun 29 2024 00:02:38 GMT+0000 (Coordinated Universal Time)

1 33051U 08028A 24180.64230828 -.00000244 00000+0 00000+0 0 9997 2 33051 0.0229 104.6406 0004602 6.7459 129.2730 1.00271057 58832
UTC large
Height (km)
Speed (km/s)
/
Latitude / Longitude
Inclination (degrees)
Orbital Period (minutes)
Azimuth
Elevation
Range (km)
Doppler Factor

Next 0 passes for location: London (51.5072 / 0.1276)

Sorry there are no passes over London.